Location: ??
(34.7252°N, 135.5457°E)
Time: 09:54:57
(UTC+00:00)

ALOS - Pass Details

Date: 24 September 2020
Orbit: 683 x 685 km, 97.9° (Epoch: 23 October)

Event Time Altitude Azimuth Distance (km) Brightness Sun altitude
Rises 19:59:21 0° 5° (N) 3,051 5.8 -10.8°
Reaches altitude 10° 20:01:39 10° 360° (N) 2,132 4.9 -10.3°
Maximum altitude 20:06:07 48° 286° (WNW) 891 2.5 -9.4°
Drops below altitude 10° 20:10:34 10° 213° (SSW) 2,118 4.4 -8.5°
Sets 20:12:51 0° 207° (SSW) 3,030 5.3 -8.0°
